Find Starlink 37102

NORAD ID: 68183 Int'l Des: 2026-050 Owner: SPXS Country: US Constellation: starlink operational
LEOCIRCULAR

当前视图

正在加载3D地球...

About Starlink 37102

Starlink 37102 (NORAD 68183) is a starlink constellation satellite (v2 mini) launched Mar 14, 2026 by SPXS of US. It operates in LEO, CIRCULAR orbit with a mass of 575.00 kg.

关于 Starlink 37102

正在加载描述...

即将过境

Passes for default location (London). Set your location on the main map for personalized predictions.

高度历史

Loading altitude history...

两行轨道根数

1 68183U 26050S 26166.00004630 .00039363 00000-0 11709-2 0 9997
2 68183 53.1594 173.4420 0001285 94.3326 145.9140 15.34375090 5915
Epoch: Jun 15, 2026 • Age: 11 hours

当前状态

高度 473.2 km
速度 7.63 km/s
星下点 -31.88°S, 70.59°E
发射日期 Mar 14, 2026
运行时间 0.2 years
类型 internet

技术详情

分类 Payload
质量 575.00 kg
干质量 530.00 kg
总质量 575.00 kg
长度 0.30 m
直径 4.10 m
跨度 29.00 m
形状 Box + pan
制造商 SPXS
平台类型 Starlink V2MO
阶段状态 In Orbit
所有者/国家 SPXS/US

Most Searched